Regional Weather Roundup
Issued by NWS Cleveland, OH

Home | Current Version | Previous Version | Text Only | Print | Product List | Glossary Off
Versions: 1 2 3 4 5 6 7 8 9 10 11 12 13 14 15 16 17 18 19 20 21 22 23 24 25 26 27 28 29 30 31 32 33 34 35 36 37 38 39 40 41 42 43 44 45 46 47 48 49 50

000
ASUS41 KCLE 182010
RWRCLE
OHIO REGIONAL WEATHER ROUNDUP
NATIONAL WEATHER SERVICE CLEVELAND, OH
300 PM EST THU DEC 18 2014

NOTE: "FAIR" INDICATES FEW OR NO CLOUDS BELOW 12,000 FEET WITH NO
SIGNIFICANT WEATHER AND/OR OBSTRUCTIONS TO VISIBILITY.

OHZ001>008-015>018-024>027-034-035-043-044-182100-
   NORTHWEST OHIO

CITY           SKY/WX    TMP DP  RH WIND       PRES   REMARKS
DEFIANCE       CLOUDY    30  23  75 W6        30.20S WCI  24
FINDLAY        CLOUDY    30  24  78 W13       30.18S WCI  20
TOLEDO EXPRESS CLOUDY    31  25  78 W10       30.18S WCI  22
TOLEDO EXEC    CLOUDY    32  25  75 W10       30.19S WCI  24
LIMA           CLOUDY    31  22  69 W7        30.19S WCI  24
$$

OHZ009>014-019>023-028>033-038-089-182100-
   NORTHEAST OHIO

CITY           SKY/WX    TMP DP  RH WIND       PRES   REMARKS
CLE-HOPKINS    FLURRIES  30  23  75 W9        30.18F WCI  22
CLE-LAKEFRONT  CLOUDY    31  24  75 SW12      30.16S WCI  22
CUY CO. ARPT   CLOUDY    32  27  80 W12       30.16R WCI  23
LORAIN-ELYRIA  CLOUDY    30  24  78 W8        30.17F WCI  22
ASHTABULA      CLOUDY    30  25  81 W9        30.14R WCI  22
AKRON-CANTON   FLURRIES  29  21  72 W10       30.14F WCI  20
WOOSTER        CLOUDY    28  22  78 W9        30.17S WCI  19
MANSFIELD      CLOUDY    27  22  81 W7        30.16S WCI  19
YOUNGSTOWN     LGT SNOW  29  24  82 W8        30.13S WCI  21
$$

OHZ042-051>053-060>062-070>072-077>081-182100-
  SOUTHWEST OHIO

CITY           SKY/WX    TMP DP  RH WIND       PRES   REMARKS
CINC-COVINGTON CLOUDY    29  19  66 CALM      30.20F
CINC-LUNKEN    CLOUDY    30  20  66 CALM      30.25F
HAMILTON       CLOUDY    29  21  72 NW5       30.24F WCI  24
DAYTON         CLOUDY    28  21  75 NW6       30.21F WCI  22
WRIGHT-PAT AFB CLOUDY    28  20  72 NW6       30.20F WCI  22
DAYTON GENERAL CLOUDY    28  20  71 N5        30.20F WCI  23
WILMINGTON     CLOUDY    28  19  69 W5        30.19F WCI  23
$$

OHZ036-037-039>041-045>050-054>059-063>069-073>076-082>088-182100-
  CENTRAL AND SOUTHEAST OHIO

CITY           SKY/WX    TMP DP  RH WIND       PRES   REMARKS
COLUMBUS       CLOUDY    28  20  71 NW7       30.20S WCI  21
OSU AIRPORT    CLOUDY    28  21  75 W9        30.19F WCI  19
BOLTON FIELD   CLOUDY    28  21  74 SW5       30.21S WCI  23
RICKENBACK AFB CLOUDY    28  21  74 W3        30.21S
NEWARK         CLOUDY    29  21  72 W7        30.19S WCI  22
MARION         CLOUDY    28  21  75 W8        30.20R WCI  20
LANCASTER      CLOUDY    28  21  75 W6        30.21S WCI  22
ZANESVILLE     CLOUDY    28  20  71 W5        30.20R WCI  23
NEW PHILLY     CLOUDY    29  22  75 VRB6      30.19S WCI  23
$$


USA.gov is the U.S. government's official web portal to all federal, state and local government web resources and services.